GPS BIIF-1 (PRN 25)

Last updated on Sat Dec 13 2025 00:03:17 GMT+0000 (Coordinated Universal Time)

1 36585U 10022A 25345.32127683 .00000014 00000+0 00000+0 0 9996 2 36585 54.3003 216.1311 0126045 65.0548 174.6737 2.00553138113822
UTC large
Height (km)
Speed (km/s)
/
Latitude / Longitude
Inclination (degrees)
Orbital Period (minutes)
Azimuth
Elevation
Range (km)
Doppler Factor

Next 0 passes for location: London (51.5072 / 0.1276)

Sorry there are no passes over London.